Date String (YYYY-MM-DD hh:mm:ss) UTC,Instrument flags,absolute air pressure of the measurement (hPa),sample flow rate (lpm),inlet stack bypass flow (lpm),air temperature of the measurement (°C),ambient temperature measured by the external sensor (°C),aerosol sample conditioner tube jacket temperature (°C),OPC LED temperature (°C),internal box temperature (°C),relative humidity of the measurement (%),span deviation,mass concentration of particles derived from Lorenz-Mie calculation of OPC scattering (μg/m³),mass concentration of particles derived from Lorenz-Mie calculation of OPC scattering (μg/m³),mass concentration of particles derived from Lorenz-Mie calculation of OPC scattering (μg/m³)
DateTimeUTC,F1_M11,P_M11,Q1_M11,Q2_M11,T1_M11,T2_M11,T3_M11,T4_M11,T5_M11,U1_M11,ZSPAN_M11,X0_M11,X2_M11,X1_M11
2024-05-04 03:00:00,SystemResetWarning,0828.7,5.01,000.00,024.2,023.6,000.0,032.7,025.9,019.0,0000.0,0016.15,0003.24,0001.18
2024-05-04 03:01:00,SystemResetWarning,0828.6,5.00,000.00,024.2,023.6,000.0,032.7,025.9,019.1,0000.0,0017.84,0003.28,0001.19
2024-05-04 03:02:00,SystemResetWarning,0828.6,5.00,000.00,024.1,023.6,000.0,032.7,025.7,019.2,0000.0,0018.05,0003.33,0001.22
2024-05-04 03:03:00,SystemResetWarning,0828.7,4.99,000.00,024.1,023.6,000.0,032.7,025.8,019.1,0000.0,0017.75,0003.33,0001.22
2024-05-04 03:04:00,SystemResetWarning,0828.7,4.99,000.00,024.2,023.6,000.0,032.7,025.9,019.0,0000.0,0017.74,0003.39,0001.22
2024-05-04 03:05:00,SystemResetWarning,0828.8,5.00,000.00,024.1,023.5,000.0,032.7,025.7,019.0,0000.0,0019.72,0003.37,0001.21
2024-05-04 03:06:00,SystemResetWarning,0828.8,5.00,000.00,024.1,023.5,000.0,032.7,025.7,019.2,0000.0,0020.40,0003.34,0001.19
2024-05-04 03:07:00,SystemResetWarning,0828.9,5.00,000.00,024.1,023.5,000.0,032.7,025.8,019.3,0000.0,0020.32,0003.36,0001.20
2024-05-04 03:08:00,SystemResetWarning,0828.9,5.00,000.00,024.1,023.5,000.0,032.7,025.9,019.3,0000.0,0020.65,0003.49,0001.20
2024-05-04 03:09:00,SystemResetWarning,0829.0,5.01,000.00,024.1,023.6,000.0,032.7,025.8,019.1,0000.0,0019.75,0003.50,0001.20
2024-05-04 03:10:00,SystemResetWarning,0829.0,4.98,000.00,024.1,023.5,000.0,032.7,025.8,019.1,0000.0,0020.00,0003.53,0001.19
2024-05-04 03:11:00,SystemResetWarning,0829.1,4.99,000.00,024.1,023.6,000.0,032.7,025.9,019.2,0000.0,0018.98,0003.51,0001.19
2024-05-04 03:12:00,SystemResetWarning,0829.1,5.00,000.00,024.1,023.6,000.0,032.7,025.9,019.2,0000.0,0017.78,0003.56,0001.19
2024-05-04 03:13:00,SystemResetWarning,0829.1,5.02,000.00,024.1,023.5,000.0,032.7,025.8,019.3,0000.0,0016.93,0003.60,0001.18
2024-05-04 03:14:00,SystemResetWarning,0829.0,4.99,000.00,024.1,023.5,000.0,032.6,025.7,019.1,0000.0,0017.83,0003.68,0001.17
2024-05-04 03:15:00,SystemResetWarning,0828.9,4.99,000.00,024.1,023.5,000.0,032.7,025.8,018.9,0000.0,0017.43,0003.71,0001.17
2024-05-04 03:16:00,SystemResetWarning,0828.9,4.99,000.00,024.1,023.5,000.0,032.7,025.9,018.6,0000.0,0015.52,0003.73,0001.19
2024-05-04 03:17:00,SystemResetWarning,0828.9,5.01,000.00,024.1,023.5,000.0,032.6,025.8,018.6,0000.0,0014.70,0003.75,0001.20
2024-05-04 03:18:00,SystemResetWarning,0829.0,5.01,000.00,024.1,023.5,000.0,032.6,025.7,018.8,0000.0,0015.04,0003.74,0001.20
2024-05-04 03:19:00,SystemResetWarning,0829.1,4.99,000.00,024.1,023.5,000.0,032.6,025.7,019.0,0000.0,0014.45,0003.65,0001.20
2024-05-04 03:20:00,SystemResetWarning,0829.1,5.00,000.00,024.1,023.5,000.0,032.6,025.7,019.2,0000.0,0015.05,0003.64,0001.21
2024-05-04 03:21:00,SystemResetWarning,0829.1,4.99,000.00,024.1,023.5,000.0,032.6,025.7,019.2,0000.0,0015.63,0003.60,0001.20
2024-05-04 03:22:00,SystemResetWarning,0829.2,5.00,000.00,024.1,023.5,000.0,032.6,025.7,019.3,0000.0,0016.02,0003.63,0001.18
2024-05-04 03:23:00,SystemResetWarning,0829.4,5.00,000.00,024.1,023.4,000.0,032.5,025.7,019.4,0000.0,0016.84,0003.56,0001.18
2024-05-04 03:24:00,SystemResetWarning,0829.3,5.01,000.00,024.1,023.4,000.0,032.5,025.7,019.3,0000.0,0016.85,0003.53,0001.17
2024-05-04 03:25:00,SystemResetWarning,0829.4,5.00,000.00,024.0,023.4,000.0,032.5,025.7,019.5,0000.0,0016.63,0003.50,0001.18
2024-05-04 03:26:00,SystemResetWarning,0829.4,5.01,000.00,024.0,023.4,000.0,032.5,025.7,019.5,0000.0,0017.99,0003.48,0001.20
2024-05-04 03:27:00,SystemResetWarning,0829.3,5.00,000.00,024.1,023.4,000.0,032.5,025.8,019.7,0000.0,0018.92,0003.54,0001.20
2024-05-04 03:28:00,SystemResetWarning,0829.3,5.00,000.00,024.1,023.5,000.0,032.5,025.9,019.8,0000.0,0019.68,0003.54,0001.22
2024-05-04 03:29:00,SystemResetWarning,0829.3,5.00,000.00,024.1,023.5,000.0,032.5,025.8,019.8,0000.0,0020.38,0003.56,0001.22
2024-05-04 03:30:00,SystemResetWarning,0829.3,5.00,000.00,024.1,023.5,000.0,032.5,025.8,019.8,0000.0,0020.69,0003.55,0001.21
2024-05-04 03:31:00,SystemResetWarning,0829.3,4.99,000.00,024.1,023.5,000.0,032.5,025.7,019.8,0000.0,0020.61,0003.54,0001.20
2024-05-04 03:32:00,SystemResetWarning,0829.4,5.00,000.00,024.0,023.5,000.0,032.5,025.7,019.8,0000.0,0019.51,0003.58,0001.23
2024-05-04 03:33:00,SystemResetWarning,0829.4,4.99,000.00,024.0,023.4,000.0,032.5,025.7,020.0,0000.0,0019.88,0003.57,0001.26
2024-05-04 03:34:00,SystemResetWarning,0829.5,5.00,000.00,024.0,023.4,000.0,032.5,025.7,020.0,0000.0,0018.34,0003.57,0001.28
2024-05-04 03:35:00,SystemResetWarning,0829.5,4.99,000.00,024.0,023.4,000.0,032.5,025.7,020.0,0000.0,0018.65,0003.59,0001.29
2024-05-04 03:36:00,SystemResetWarning,0829.4,5.00,000.00,024.0,023.4,000.0,032.5,025.7,020.0,0000.0,0019.50,0003.59,0001.30
2024-05-04 03:37:00,SystemResetWarning,0829.4,5.00,000.00,024.0,023.4,000.0,032.5,025.7,020.0,0000.0,0018.91,0003.59,0001.31
2024-05-04 03:38:00,SystemResetWarning,0829.4,5.00,000.00,024.0,023.4,000.0,032.5,025.7,020.0,0000.0,0018.09,0003.52,0001.31
2024-05-04 03:39:00,SystemResetWarning,0829.4,5.00,000.00,024.1,023.4,000.0,032.5,025.8,020.1,0000.0,0016.89,0003.49,0001.31
2024-05-04 03:40:00,SystemResetWarning,0829.4,5.01,000.00,024.0,023.4,000.0,032.5,025.7,020.2,0000.0,0016.29,0003.51,0001.31
2024-05-04 03:41:00,SystemResetWarning,0829.4,5.00,000.00,024.1,023.5,000.0,032.5,025.8,020.2,0000.0,0015.00,0003.52,0001.32
2024-05-04 03:42:00,SystemResetWarning,0829.5,4.99,000.00,024.1,023.5,000.0,032.5,025.9,020.2,0000.0,0015.80,0003.57,0001.32
2024-05-04 03:43:00,SystemResetWarning,0829.5,4.99,000.00,024.1,023.5,000.0,032.5,025.9,020.1,0000.0,0016.09,0003.57,0001.33
2024-05-04 03:44:00,SystemResetWarning,0829.6,5.00,000.00,024.1,023.5,000.0,032.5,025.9,019.9,0000.0,0016.18,0003.56,0001.34
2024-05-04 03:45:00,SystemResetWarning,0829.6,5.00,000.00,024.1,023.5,000.0,032.5,025.9,019.9,0000.0,0015.95,0003.53,0001.34
2024-05-04 03:46:00,SystemResetWarning,0829.7,5.00,000.00,024.1,023.5,000.0,032.5,025.9,019.9,0000.0,0015.67,0003.49,0001.36
2024-05-04 03:47:00,SystemResetWarning,0829.7,5.00,000.00,024.1,023.5,000.0,032.5,025.9,020.0,0000.0,0015.39,0003.47,0001.39
2024-05-04 03:48:00,SystemResetWarning,0829.7,5.01,000.00,024.1,023.5,000.0,032.5,025.9,020.4,0000.0,0014.57,0003.47,0001.41
2024-05-04 03:49:00,SystemResetWarning,0829.8,5.01,000.00,024.1,023.5,000.0,032.5,025.9,020.5,0000.0,0015.43,0003.54,0001.46
2024-05-04 03:50:00,SystemResetWarning,0829.8,5.01,000.00,024.1,023.5,000.0,032.5,025.9,020.4,0000.0,0016.83,0003.57,0001.50
2024-05-04 03:51:00,SystemResetWarning,0829.8,5.00,000.00,024.1,023.5,000.0,032.5,025.8,020.3,0000.0,0016.49,0003.57,0001.54
2024-05-04 03:52:00,SystemResetWarning,0829.9,5.00,000.00,024.1,023.5,000.0,032.5,025.8,020.3,0000.0,0016.85,0003.58,0001.56
2024-05-04 03:53:00,SystemResetWarning,0829.9,4.99,000.00,024.1,023.5,000.0,032.5,025.9,020.2,0000.0,0016.91,0003.63,0001.58
2024-05-04 03:54:00,SystemResetWarning,0829.9,5.00,000.00,024.1,023.5,000.0,032.5,025.9,020.0,0000.0,0015.96,0003.63,0001.59
2024-05-04 03:55:00,SystemResetWarning,0829.9,4.99,000.00,024.1,023.5,000.0,032.6,025.9,019.9,0000.0,0015.83,0003.68,0001.60
2024-05-04 03:56:00,SystemResetWarning,0829.9,5.00,000.00,024.1,023.5,000.0,032.6,026.0,019.8,0000.0,0016.16,0003.71,0001.59
2024-05-04 03:57:00,SystemResetWarning,0830.0,5.00,000.00,024.1,023.6,000.0,032.6,026.0,019.7,0000.0,0017.76,0003.79,0001.60
2024-05-04 03:58:00,SystemResetWarning,0830.0,5.00,000.00,024.1,023.6,000.0,032.6,026.0,019.5,0000.0,0018.01,0003.86,0001.59
2024-05-04 03:59:00,SystemResetWarning,0830.0,5.00,000.00,024.2,023.6,000.0,032.6,026.0,019.3,0000.0,0018.42,0003.88,0001.56
